TimeCDT,TemperatureF,Dew PointF,Humidity,Sea Level PressureIn,VisibilityMPH,Wind Direction,Wind SpeedMPH,Gust SpeedMPH,PrecipitationIn,Events,Conditions,WindDirDegrees,DateUTC
12:53 AM,-9999,-9999,N/A,30.09,10.0,SSE,10.4,-,N/A,,Clear,160,2013-10-29 05:53:00
1:53 AM,-9999,-9999,N/A,30.09,10.0,SE,9.2,-,N/A,,Mostly Cloudy,140,2013-10-29 06:53:00
2:53 AM,-9999,-9999,N/A,30.09,10.0,SE,8.1,-,N/A,,Overcast,140,2013-10-29 07:53:00
3:53 AM,-9999,-9999,N/A,30.08,9.0,SE,6.9,-,N/A,,Overcast,140,2013-10-29 08:53:00
4:53 AM,-9999,-9999,N/A,30.07,8.0,SE,8.1,-,N/A,,Mostly Cloudy,140,2013-10-29 09:53:00
5:53 AM,-9999,-9999,N/A,30.09,7.0,SSE,6.9,-,N/A,,Overcast,150,2013-10-29 10:53:00
6:25 AM,-9999,-9999,N/A,30.10,8.0,SE,6.9,-,N/A,,Mostly Cloudy,140,2013-10-29 11:25:00
6:40 AM,-9999,-9999,N/A,30.10,7.0,SE,5.8,-,N/A,,Scattered Clouds,140,2013-10-29 11:40:00
6:53 AM,-9999,-9999,N/A,30.09,7.0,SE,6.9,-,N/A,,Scattered Clouds,140,2013-10-29 11:53:00
7:53 AM,-9999,-9999,N/A,30.09,3.0,SE,5.8,-,N/A,,Mostly Cloudy,130,2013-10-29 12:53:00
8:53 AM,-9999,-9999,N/A,30.11,7.0,SE,9.2,-,N/A,,Mostly Cloudy,140,2013-10-29 13:53:00
9:53 AM,-9999,-9999,N/A,30.12,10.0,SSE,10.4,-,N/A,,Overcast,160,2013-10-29 14:53:00
10:53 AM,72.0,66.9,84,30.12,10.0,SSE,9.2,-,N/A,,Overcast,150,2013-10-29 15:53:00
11:53 AM,73.9,66.9,79,30.12,10.0,SSE,9.2,-,N/A,,Overcast,160,2013-10-29 16:53:00
12:53 PM,75.9,68.0,76,30.09,10.0,SSE,12.7,-,N/A,,Overcast,160,2013-10-29 17:53:00
1:53 PM,75.9,68.0,76,30.06,10.0,SE,8.1,-,N/A,,Overcast,140,2013-10-29 18:53:00
2:53 PM,75.9,69.1,79,30.04,10.0,SE,5.8,-,N/A,,Overcast,140,2013-10-29 19:53:00
3:11 PM,77.0,69.8,78,30.04,10.0,SE,6.9,-,N/A,,Overcast,140,2013-10-29 20:11:00
3:53 PM,77.0,68.0,74,30.04,10.0,ESE,6.9,-,N/A,,Overcast,120,2013-10-29 20:53:00
4:53 PM,79.0,69.1,72,30.03,10.0,SE,6.9,-,N/A,,Mostly Cloudy,140,2013-10-29 21:53:00
5:53 PM,78.1,69.1,74,30.03,10.0,SE,5.8,-,N/A,,Clear,140,2013-10-29 22:53:00
6:53 PM,75.0,69.1,82,30.03,10.0,SE,6.9,-,N/A,,Partly Cloudy,130,2013-10-29 23:53:00
7:53 PM,73.9,69.1,85,30.05,10.0,ESE,5.8,-,N/A,,Partly Cloudy,120,2013-10-30 00:53:00
8:53 PM,73.0,69.1,87,30.06,10.0,SE,8.1,-,N/A,,Clear,130,2013-10-30 01:53:00
9:53 PM,73.0,68.0,84,30.06,10.0,SSE,11.5,-,N/A,,Clear,150,2013-10-30 02:53:00
10:53 PM,72.0,66.9,84,30.06,10.0,SSE,12.7,-,N/A,,Clear,150,2013-10-30 03:53:00
11:53 PM,71.1,66.0,84,30.06,10.0,SSE,12.7,-,N/A,,Clear,150,2013-10-30 04:53:00